TimeEDT,TemperatureF,Dew PointF,Humidity,Sea Level PressureIn,VisibilityMPH,Wind Direction,Wind SpeedMPH,Gust SpeedMPH,PrecipitationIn,Events,Conditions,WindDirDegrees,DateUTC
12:53 AM,70.0,54.0,57,29.94,10.0,South,3.5,-,N/A,,Clear,190,2012-06-10 04:53:00
1:53 AM,64.9,55.0,70,29.95,10.0,South,4.6,-,N/A,,Clear,180,2012-06-10 05:53:00
2:53 AM,64.0,55.0,73,29.95,10.0,South,3.5,-,N/A,,Clear,170,2012-06-10 06:53:00
3:53 AM,66.9,53.1,61,29.96,10.0,SSE,3.5,-,N/A,,Clear,160,2012-06-10 07:53:00
4:53 AM,64.9,54.0,68,29.97,10.0,SSE,3.5,-,N/A,,Clear,160,2012-06-10 08:53:00
5:53 AM,64.0,54.0,70,29.99,10.0,South,3.5,-,N/A,,Clear,170,2012-06-10 09:53:00
6:53 AM,64.9,54.0,68,30.00,10.0,SSE,3.5,-,N/A,,Clear,160,2012-06-10 10:53:00
7:53 AM,69.1,55.9,63,30.00,10.0,South,3.5,-,N/A,,Clear,170,2012-06-10 11:53:00
8:53 AM,73.9,57.9,57,30.00,10.0,South,9.2,-,N/A,,Clear,180,2012-06-10 12:53:00
9:53 AM,78.1,59.0,52,30.02,10.0,SSW,5.8,-,N/A,,Mostly Cloudy,200,2012-06-10 13:53:00
10:53 AM,82.9,59.0,44,30.02,10.0,WSW,5.8,-,N/A,,Partly Cloudy,240,2012-06-10 14:53:00
11:53 AM,86.0,59.0,40,30.02,10.0,WSW,5.8,-,N/A,,Clear,240,2012-06-10 15:53:00
12:53 PM,87.1,57.9,37,30.02,10.0,SSW,10.4,-,N/A,,Scattered Clouds,210,2012-06-10 16:53:00
1:53 PM,89.1,57.9,35,30.01,10.0,South,8.1,-,N/A,,Clear,190,2012-06-10 17:53:00
2:53 PM,89.1,55.0,31,29.99,10.0,Variable,5.8,-,N/A,,Partly Cloudy,0,2012-06-10 18:53:00
3:53 PM,89.1,55.0,31,29.97,10.0,South,8.1,-,N/A,,Scattered Clouds,170,2012-06-10 19:53:00
4:53 PM,90.0,55.0,30,29.96,10.0,South,8.1,-,N/A,,Scattered Clouds,170,2012-06-10 20:53:00
5:53 PM,90.0,54.0,29,29.95,10.0,SSW,12.7,-,N/A,,Scattered Clouds,200,2012-06-10 21:53:00
6:53 PM,89.1,53.1,29,29.94,10.0,SSE,6.9,-,N/A,,Scattered Clouds,160,2012-06-10 22:53:00
7:53 PM,87.1,54.0,32,29.93,10.0,SSE,6.9,-,N/A,,Clear,160,2012-06-10 23:53:00
8:53 PM,84.0,54.0,35,29.93,10.0,SE,3.5,-,N/A,,Clear,140,2012-06-11 00:53:00
9:53 PM,78.1,55.9,46,29.94,10.0,South,4.6,-,N/A,,Clear,170,2012-06-11 01:53:00
10:53 PM,79.0,54.0,42,29.94,10.0,SSE,5.8,-,N/A,,Clear,160,2012-06-11 02:53:00
11:53 PM,78.1,55.9,46,29.93,10.0,SSE,4.6,-,N/A,,Clear,160,2012-06-11 03:53:00